Tracking 19475 objects as of 18-Jan-2019
HD Live streaming from Space Station
objects crossing your sky now

COSMOS 1995

Track COSMOS 1995 now!
10-day predictions
COSMOS 1995 is classified as:


NORAD ID: 19786
Int'l Code: 1989-009B
Perigee: 1,418.0 km
Apogee: 1,424.5 km
Inclination: 82.6 °
Period: 114.1 minutes
Semi major axis: 7792 km
RCS: 1.2185 m2 (large)
Launch date: February 10, 1989
Source: Commonwealth of Independent States (former USSR) (CIS)
Launch site: PLESETSK MISSILE AND SPACE COMPLEX (PKMTR)
aabbcc
Your satellite tracking list
Your tracking list is empty




NASA's NSSDC Master Catalog

Two Line Element Set (TLE):
1 19786U 89009B   19018.21763553  .00000000  00000-0 -59503-4 0  9995
2 19786  82.6248 305.3031 0004145 119.6833  35.0230 12.62146741379032
Source of the keplerian elements: AFSPC